YAOGAN-50 02 DEB

基本信息
目录编号:
100579
目录名称:
YAOGAN-50 02 DEB
国际标识:
2026-051T
轨道中心:
EARTH
物体状态:
在轨
发射日期:
--
轨道信息
数据来源: 国际轨道数据
星历时间: 2026-09-05T12:07:36+0800
半长轴: 7222.477km
偏心率: 0.0265218
轨道倾角: 141.932°
近地点辐角: 10.961°
升交点赤经: 5.298°
平近点角: 349.680°
近地点: 652.786km
远地点: 1035.894km
周期: 101.810分钟
每日圈数: 14.144044
详细信息
轨道高度:
LEO
数据来源:
AOE Integration Group
参考系:
TEME
时间系统:
UTC
历元类型:
SGP4
2D轨道图
3D轨道图
轨道高度分析图
轨道倾角分析图
轨道综合分析图
查看轨道综合分析图